Regional Weather Roundup
Issued by NWS

Home | Current Version | Previous Version | Graphics & Text | Print | Product List | Glossary On
Versions: 1 2 3 4 5 6 7 8 9 10 11 12 13 14 15 16 17 18 19 20 21 22 23 24 25 26 27 28 29 30 31 32 33 34 35 36 37 38 39 40 41 42 43 44 45 46 47 48 49 50
000
ASUS45 KSLC 210810
RWRUT

UTAH REGIONAL WEATHER ROUNDUP
NATIONAL WEATHER SERVICE SALT LAKE CITY UT
200 AM MDT TUE APR 21 2015

UTZ001>011-023>025-210900-

NORTHERN UTAH

CITY           SKY/WX    TMP DP  RH WIND       PRES   REMARKS
BRIGHAM CITY   CLEAR     45  35  68 CALM      29.89S
HILL AFB       CLEAR     50  25  36 E15       29.90R
LOGAN          CLEAR     39  33  79 CALM      29.90R
OGDEN          CLEAR     48  27  44 SW7       29.88R
PROVO AIRPORT  CLEAR     45  27  49 CALM      29.92S
SALT LAKE CITY CLEAR     49  29  46 SE9       29.89R
VERNAL         PTCLDY    42  25  50 W6        29.92S
WENDOVER       PTCLDY    48  19  32 NE6       29.88S
HEBER CITY     CLEAR     34  23  64 SE5       29.96S WCI  30
WEST JORDAN    CLEAR     46  27  46 SW7       29.90S

$$

UTZ012>022-026-027-210900-

SOUTHERN/CENTRAL UTAH

CITY           SKY/WX    TMP DP  RH WIND       PRES   REMARKS
BLANDING       CLEAR     41  29  61 N6        30.03S
BRYCE CANYON   PTCLDY    31  18  58 W10       30.04S WCI  22
CEDAR CITY     CLEAR     49  16  26 SE6       29.93R
DELTA          CLEAR     43  12  28 S6        29.90F
HANKSVILLE     CLEAR     46  28  49 CALM      29.90F
MILFORD        CLEAR     44  15  31 SW5       29.91S
MOAB/CYNLANDS  CLEAR     50  32  50 CALM      29.87R
PRICE          CLEAR     46  17  31 N9        29.93S
ST GEORGE      SUNNY     64  16  15 E10       29.83S
KANAB          CLEAR     36  19  51 NE3       29.96S

$$

REGIONAL REPORTS     COLORADO/ARIZONA

CITY           SKY/WX    TMP DP  RH WIND       PRES   REMARKS
CRAIG, CO      CLEAR     31  28  89 SW3       29.97S
GRAND JUNCTION PTCLDY    46  35  65 SE6       29.92S
RIFLE          PTCLDY    41  31  67 CALM      29.98S
MONTROSE       CLEAR     43  32  65 SE9       29.98S
CORTEZ         CLEAR     31  22  69 NE6       29.99S WCI  25
PAGE, AZ       CLEAR     63  17  17 SW6       29.87R
GRAND CANYON   PTCLDY    31  15  52 CALM      30.03S
KINGMAN        CLEAR     61  21  21 S14       29.87S
FLAGSTAFF      PTCLDY    32  19  58 CALM      30.06

$$

REGIONAL REPORTS    NEVADA/IDAHO/WYOMING

CITY           SKY/WX    TMP DP  RH WIND       PRES   REMARKS
LAS VEGAS, NV  PTCLDY    73  16  11 S9        29.73S
ELY            CLEAR     33   5  30 S14       29.97S WCI  23
ELKO           CLEAR     38  19  46 CALM      29.91S
POCATELLO, ID  CLEAR     43  28  55 CALM      29.88S
BURLEY         CLEAR     42  27  55 SW6       29.86R
EVANSTON, WY   CLEAR     43  22  43 S7        29.99F
ROCK SPRINGS   CLEAR     35  19  52 S5        29.97  WCI  31
KEMMERER       PTCLDY    36  19  51 W3        30.00R

$$



USA.gov is the U.S. government's official web portal to all federal, state and local government web resources and services.